CZ-6A DEB

Satellite information

Favourite Embed

Satellite Type and Status

DEBRISIN ORBIT

Key statistics

Satellite CZ-6A DEB at a glance.

Uptime

333

Days in orbit

Revolutions

≈ 14.2

Per day

Orbit

LEO

Low Earth Orbit

Inclination

89.0

Latest

Satellite identification and parameters

Extended collection of information and parameters for CZ-6A DEB.

Object identification

Identified? True

Debris? True

Object name: CZ-6A DEB

International designator: 2024-140HW

Object number (NORAD): 60843

Object ID (CCSDS): 60843

Country: PEOPLES REPUBLIC OF CHINA (PRC)

Current information (Y/N): Y

RCS size: SMALL

Orbital parameters

Period: 101.686 minutes

Inclination: 89.024 deg

SMA: 7216.632 km

Apoapsis: 883.749 km

Periapsis: 793.245 km

RAAN: 314.912 deg

Eccentricy: 0.0062705

Argument of periapsis: 249.3953 deg

Mean anomaly: 110.0502 deg

Mean motion: 14.16122796 rev/day

Mean motion (dot): 0.0000102 rev/day2

B* drag term: 0.00049985 1/REarth

Two-line elements (TLE)

Creation date: July 4, 2025, 6:39 p.m.

Reference frame: TEME

Reference center: EARTH

Epoch: July 4, 2025, 9:22 a.m. UTC

TLE line 0: 0 CZ-6A DEB

TLE line 1: 1 60843U 24140HW 25185.39036316 .00001020 00000-0 49985-3 0 9995

TLE line 2: 2 60843 89.0240 314.9120 0062705 249.3953 110.0502 14.16122796 44759

Live tracking on map

Real-time ground track for satellite CZ-6A DEB.

In-orbit conjunctions

A list of the most updated potential collisions computed for object CZ-6A DEB.

Target Orbit TCA Probability of collision Miss distance Type
FENGYUN 1C DEB SSO 2025-04-08 11:41:20 0.000223719 18.0 (m) DEBRIS
CZ-6A DEB LEO 2025-02-28 19:04:30 0.0007859359 679.0 (m) DEBRIS
FENGYUN 1C DEB SSO 2025-02-07 16:37:42 0.0001251673 777.0 (m) DEBRIS
NOAA 16 DEB SSO 2025-01-08 00:16:06 0.0001620602 221.0 (m) DEBRIS
COSMOS 2251 DEB LEO 2025-01-04 06:02:04 0.0003605249 27.0 (m) DEBRIS

Associated space launch

18 Low Earth Orbit communication satellites with Ku, Q and V band payloads for the G60 constellation operated by Shanghai Spacecom Satellite Technology (SSST) with funding backed by the Shanghai local government. Initial constellation will consist of 1296 satellites by 2027 with long term plans to expand it to 12000 satellites.

CZ-6A DEB was lifted into orbit during the mission ‘Long March 6A | G60 Polar Group 01’, on board a Long March 6A space rocket.

The launch took place on Aug. 6, 2024, 6:42 a.m. from Launch Complex 9A.

For more information about the launch, click the button.

Launch to space Long March 6A | G60 Polar Group 01
Long March 6A | G60 Polar Group 01

Agency: N/A

Status: Launch Successful

Launch date: Aug. 6, 2024, 6:42 a.m. UTC

Rocket: Long March 6A

Launch pad: Launch Complex 9A

Location: Taiyuan Satellite Launch Center, People's Republic of China

...

Latest news about this satellite

News about space launch
Brightness of first Chinese broadband constellation satellites alarms astronomers

The first satellites of a Chinese broadband constellation are significantly brighter than those of Western systems, posing a new challenge for astronomers.

News about space launch
Chinese rocket stage breaks up into cloud of more than 700 pieces of space debris

HELSINKI — A Chinese Long March 6A rocket’s upper stage has fragmented into a cloud of over 700 pieces of space debris, adding to concerns about long-term orbital safety. China […]

News about space launch
China's Thousand Sails Megaconstellation Kicks Off with Dangerous Debris Field

China's Thousand Sails Megaconstellation Kicks Off with Dangerous Debris Field


Newsletter sign-up

Weekly statistics, charts and insights to help you stay on top of the space industry.